Theta_e
309 309 310 310 311 311 310 308 307 305 304 303 303 304 305 305 304 305 305 308 301 296 296 298 297 293 293 293 289 293 293 293 292 288 289 289 288 289 289 290 289 288 286 286 287 283 280 296 296 290 295 300 300 300
308 308 309 309 310 310 308 307 306 305 303 303 304 305 305 305 306 306 302 308 308 298 298 303 302 302 300 298 295 295 293 292 294 293 291 292 289 291 289 284 293 287 289 288 288 288 296 297 295 298 299 298 298 298
307 308 308 309 309 309 306 306 305 304 303 304 304 305 305 305 306 305 305 308 305 297 298 299 297 304 305 304 304 291 294 296 295 299 294 293 287 292 286 288 290 292 296 290 289 292 293 295 298 299 299 298 300 301
307 308 308 309 308 306 306 305 304 303 304 304 304 305 304 305 305 305 305 310 306 299 293 295 303 301 305 306 302 301 299 300 301 297 293 290 288 294 290 291 290 292 293 291 291 294 293 295 296 295 295 296 297 299
307 308 308 307 306 306 305 304 303 303 304 304 304 304 304 304 305 305 307 309 308 299 291 294 301 303 304 304 302 301 299 297 294 290 288 288 292 291 293 291 290 295 291 287 285 291 290 290 293 294 294 295 296 296
307 306 305 305 305 304 303 303 303 304 304 302 302 303 303 304 304 305 297 305 307 307 294 289 300 300 302 302 302 300 297 295 294 291 290 293 295 291 286 287 295 297 296 294 288 293 293 294 296 296 295 295 298 297
305 305 304 303 303 302 303 303 303 302 302 302 302 301 302 303 304 300 297 301 306 306 296 290 294 299 300 300 301 297 298 295 293 290 289 291 291 291 288 287 295 296 295 295 295 293 292 293 292 295 296 296 298 298
303 302 302 302 303 302 302 301 301 301 300 300 300 301 302 302 302 299 304 304 306 302 299 287 292 294 301 297 294 298 295 293 291 292 293 291 292 288 286 294 294 294 295 295 294 295 295 296 296 295 295 295 297 296
303 302 301 300 299 299 299 299 300 298 298 301 302 302 302 300 295 298 303 304 307 300 290 289 290 289 300 298 298 297 298 288 294 288 290 291 290 287 293 292 292 294 294 294 296 295 294 293 293 294 293 293 294 297
299 298 298 298 298 298 299 299 298 298 300 301 301 296 292 299 305 304 301 296 294 294 296 289 295 291 299 299 297 295 296 291 288 292 294 291 291 298 299 298 298 299 299 298 294 293 293 292 292 293 293 293 294 296
297 297 298 298 298 298 298 298 298 300 300 299 295 294 304 303 302 295 291 290 292 288 293 293 295 291 299 293 291 299 292 292 285 292 292 289 290 297 299 300 301 301 301 298 299 298 297 297 293 293 293 294 294 296
297 298 298 297 297 298 299 298 299 299 300 299 300 303 304 299 292 289 289 290 288 286 294 292 293 296 296 299 291 293 289 290 285 297 291 287 295 299 300 301 301 301 301 301 300 298 298 297 295 294 294 294 295 298
298 297 298 298 298 298 299 299 299 299 300 303 299 294 293 293 284 283 282 287 288 293 295 294 293 296 291 291 289 290 286 287 297 288 287 294 298 300 300 299 301 301 301 301 301 301 300 298 297 295 294 296 297 301
297 297 298 298 298 298 298 299 299 300 299 292 290 283 286 285 287 289 290 293 296 297 296 297 296 293 291 288 291 286 291 294 286 285 286 296 298 301 300 302 302 301 300 300 300 300 299 297 295 295 296 296 297 301
297 298 298 299 299 299 299 299 299 300 297 290 290 283 287 292 295 294 296 296 296 298 298 296 296 293 288 288 292 291 287 285 287 288 295 299 301 299 302 302 301 302 300 300 300 300 299 298 295 294 296 296 296 298
298 298 298 298 299 300 300 300 300 301 295 293 291 288 292 291 291 293 294 293 298 299 299 296 289 288 288 291 288 287 286 285 289 291 300 302 300 301 302 302 302 301 301 301 301 300 300 297 295 295 297 296 296 296
296 297 298 299 299 299 301 299 295 291 291 290 289 294 293 293 292 296 299 299 304 298 290 289 287 288 294 290 288 293 289 290 292 299 302 302 303 302 302 303 302 300 300 301 301 301 300 298 297 296 295 296 297 297
297 298 298 298 299 298 299 299 293 291 288 291 290 292 293 294 295 296 299 301 297 296 294 290 293 290 289 288 291 296 299 303 302 303 302 304 304 303 303 302 301 300 300 299 298 299 300 299 299 298 299 298 300 299
297 299 298 298 298 297 293 294 295 287 290 293 294 294 294 295 297 299 299 299 300 303 299 291 289 290 293 297 298 302 302 301 301 302 304 305 305 304 302 302 302 301 300 298 298 299 300 300 300 300 300 301 299 300
298 297 298 297 298 295 290 292 298 291 288 294 294 292 294 295 298 298 298 299 300 298 295 292 294 296 297 299 301 301 302 305 304 302 303 304 304 303 302 302 302 300 298 298 298 296 299 300 301 301 300 300 300 301
295 299 298 300 299 296 294 294 291 292 292 291 296 295 294 296 295 296 296 301 298 296 294 299 300 303 305 305 304 304 307 307 304 303 301 300 303 305 302 301 300 300 297 296 296 297 297 299 300 302 301 301 301 301
299 298 297 297 293 293 292 295 293 296 293 294 295 296 294 294 295 297 302 298 297 300 302 302 303 303 303 303 306 306 308 307 307 305 298 300 300 300 300 300 297 297 296 296 297 297 299 301 302 302 301 301 300 302
296 298 296 294 288 289 288 298 289 292 288 292 296 293 294 295 298 303 297 300 302 306 306 304 303 304 305 307 307 308 308 307 306 304 303 303 304 304 301 300 300 298 296 298 299 298 300 294 300 300 302 302 301 301
296 294 289 288 288 286 292 289 293 292 292 292 291 289 293 297 301 298 295 299 300 302 302 302 304 303 304 306 305 307 306 307 304 304 304 303 304 300 300 299 300 301 300 299 299 301 302 302 297 302 302 302 301 301
287 287 288 284 289 286 286 287 289 290 287 291 289 291 295 301 295 294 293 296 299 301 300 303 303 302 301 305 306 305 307 306 304 302 303 305 304 302 300 301 300 301 302 299 299 300 301 302 303 301 302 301 301 300
283 288 285 288 289 286 289 286 287 287 290 289 291 297 297 295 290 289 294 298 299 300 298 298 300 302 304 305 304 302 304 306 305 302 303 305 305 303 300 297 297 299 304 302 302 301 302 302 302 301 301 300 292 300
283 286 292 295 293 292 290 293 294 292 289 289 292 291 293 287 288 293 299 301 300 300 301 301 304 304 305 307 306 308 307 307 306 304 305 305 305 306 304 300 298 302 303 303 303 302 302 302 300 301 301 302 302 301
289 290 286 291 291 294 290 291 289 289 290 292 291 288 288 288 290 299 301 302 301 302 302 305 308 308 309 310 311 309 307 307 307 307 306 305 305 304 304 305 304 288 302 304 301 302 303 302 301 300 301 301 302 302
289 293 292 289 291 291 292 290 291 293 294 291 290 293 294 300 303 302 303 303 302 304 302 303 306 308 309 309 312 311 310 307 304 299 298 299 300 302 305 305 304 305 305 304 286 294 301 303 303 302 301 301 301 303
289 296 290 290 288 289 295 297 295 299 302 302 303 301 300 301 303 305 303 302 301 301 303 305 307 307 304 306 306 307 310 309 309 305 301 300 301 304 306 306 305 305 305 305 304 304 289 298 295 302 301 302 301 301
296 294 290 291 290 296 297 300 302 302 304 304 303 299 298 300 302 305 304 305 304 304 303 302 303 306 305 304 305 304 304 307 307 308 307 308 306 306 306 306 307 306 306 305 303 302 302 302 303 301 300 300 301 299
294 291 291 289 294 299 301 300 300 298 300 300 300 301 300 298 296 299 304 304 303 302 295 300 303 304 306 306 306 305 296 306 307 307 306 308 308 308 309 307 307 307 305 304 303 302 301 300 301 300 300 300 300 301
293 293 294 294 295 293 299 298 296 296 299 297 296 298 299 297 294 299 305 307 305 302 304 305 305 307 307 305 304 302 299 302 292 285 286 285 284 291 302 307 307 307 305 304 303 302 301 301 300 300 301 301 301 302
Wind_Speed
17 16 16 15 13 12 10 10 9 9 9 7 7 9 8 6 8 7 5 3 5 4 10 10 9 10 6 4 3 4 6 5 4 4 4 5 6 7 8 11 11 13 8 9 9 8 12 17 17 16 18 22 19 18
17 17 15 15 12 11 9 9 11 10 8 8 9 7 6 7 9 7 5 3 4 5 10 16 14 14 13 9 5 3 6 3 3 2 2 4 7 7 9 11 8 6 3 7 6 8 20 22 20 18 19 23 22 21
17 17 16 13 13 9 7 10 10 9 8 8 7 7 8 9 10 8 6 5 3 4 9 8 3 8 10 14 10 4 3 5 3 4 3 3 5 7 7 7 12 7 11 6 11 10 15 17 21 21 23 25 25 25
16 15 14 13 7 7 11 10 9 8 8 6 6 8 8 9 9 10 7 5 4 4 4 2 6 8 5 9 11 15 10 3 5 4 2 3 4 5 6 10 14 13 11 9 17 20 19 17 18 21 21 21 22 25
15 13 12 6 7 9 9 8 6 7 7 6 5 6 4 4 7 10 5 4 3 5 4 9 14 9 4 10 10 13 11 10 3 1 2 3 5 5 6 10 11 4 4 3 6 16 16 15 17 23 23 21 19 19
12 5 5 8 8 7 5 6 7 7 4 5 3 3 4 7 8 6 3 5 4 2 3 5 6 8 7 6 8 9 9 6 3 1 3 4 8 2 4 7 3 6 8 9 7 11 17 20 18 17 18 21 17 17
5 7 8 6 5 5 5 4 4 3 4 4 5 6 6 6 8 5 4 4 2 4 2 5 5 9 6 6 6 4 6 2 2 1 4 6 5 5 3 9 10 15 12 14 14 15 10 8 13 18 17 21 13 13
7 5 4 3 6 7 4 4 4 4 3 4 6 6 7 6 10 8 5 7 5 3 3 4 5 6 9 5 4 4 5 3 4 3 3 4 2 3 5 8 14 15 15 12 11 13 14 15 15 15 15 15 14 10
9 9 7 5 3 3 2 2 3 2 4 6 6 4 6 6 4 3 5 5 2 3 2 4 6 3 7 4 5 4 4 4 4 3 4 3 5 6 7 7 9 12 10 12 14 12 14 14 16 16 15 15 15 14
4 3 2 2 1 1 0 1 2 4 5 5 4 4 4 1 13 9 2 2 1 2 4 5 8 2 3 2 2 4 3 3 4 6 4 4 5 3 5 7 9 11 11 12 14 12 12 11 13 16 14 13 12 13
1 0 1 1 0 1 1 3 4 6 7 4 4 1 5 8 1 2 5 6 6 5 6 6 8 2 4 2 1 2 2 2 3 4 4 3 4 5 5 8 6 6 9 10 12 9 11 11 12 14 14 14 12 11
2 3 1 1 2 3 4 3 5 6 2 2 4 2 4 4 4 5 5 4 5 4 4 4 2 1 4 2 1 3 2 2 5 3 2 4 2 6 7 10 10 8 10 11 12 10 12 13 12 12 13 12 12 12
4 3 3 4 4 4 3 4 4 4 9 3 4 3 3 4 4 7 7 5 4 3 3 6 4 2 2 2 2 3 4 5 1 2 4 0 6 7 10 9 11 12 8 13 13 11 14 14 14 12 13 11 10 5
3 4 6 7 7 6 6 6 6 6 4 2 4 3 6 6 7 7 5 2 4 4 4 3 2 3 2 3 3 4 5 2 3 5 1 4 9 10 6 9 9 10 9 11 12 12 14 14 13 12 13 10 9 9
6 8 9 10 9 8 8 6 7 6 3 4 4 6 9 9 3 4 4 2 4 4 2 1 1 1 2 3 4 3 3 4 4 3 4 6 8 9 12 10 7 7 5 7 8 10 13 14 11 11 12 10 10 11
10 11 4 2 6 10 11 9 5 2 4 5 8 7 8 4 7 7 6 5 4 3 3 2 1 3 4 4 4 5 3 4 1 1 4 7 7 7 8 8 8 7 10 8 7 11 10 11 10 10 10 11 10 9
5 2 3 5 3 2 9 5 2 4 5 5 6 7 8 6 6 6 2 4 3 3 1 1 5 5 2 3 4 3 2 1 1 4 5 7 9 8 7 7 8 8 9 11 8 8 9 9 5 7 9 9 8 8
4 5 4 2 5 5 4 6 3 5 7 7 6 8 5 3 6 6 5 5 6 5 4 2 3 3 2 4 3 3 4 2 5 5 4 6 5 6 6 6 9 6 8 11 6 7 5 5 6 6 8 5 7 5
7 4 3 4 2 3 5 6 4 5 8 7 6 9 5 5 8 5 6 9 7 4 4 1 3 3 3 1 3 1 3 1 4 4 3 4 4 5 9 9 6 7 8 8 5 5 4 7 7 6 5 6 7 7
6 5 3 2 3 4 5 3 3 5 7 3 6 6 5 6 4 8 9 8 6 4 3 4 4 4 3 3 2 1 2 2 3 5 3 2 2 5 2 6 7 6 7 5 5 7 2 5 5 7 7 6 5 8
5 3 5 3 3 6 3 2 3 5 6 6 6 6 5 7 7 9 8 3 5 3 3 5 3 3 1 3 1 4 1 2 3 4 5 6 7 5 5 4 9 7 5 4 3 4 2 5 5 5 5 7 8 8
2 4 1 3 4 2 4 4 4 3 5 6 7 8 4 8 7 7 4 5 4 4 3 3 0 1 3 4 4 4 3 5 4 3 8 6 5 7 6 5 8 7 6 4 4 4 4 4 5 6 6 7 7 7
5 3 3 5 3 4 6 3 4 5 6 4 3 3 4 4 5 4 4 4 1 2 2 3 1 2 2 4 5 6 6 5 3 2 5 5 8 11 7 6 6 6 6 5 4 4 4 3 3 6 6 5 8 7
2 4 4 4 5 5 4 5 5 5 4 3 4 3 3 4 4 4 3 3 3 3 3 3 2 2 2 6 5 4 6 4 3 6 4 4 10 8 6 6 5 6 7 5 3 3 4 7 3 5 6 9 6 6
3 4 4 4 4 5 6 5 6 5 5 5 4 3 2 1 1 2 3 3 3 4 3 1 4 2 5 4 5 6 4 2 4 6 6 4 11 8 6 6 4 6 6 4 4 4 5 4 7 7 7 8 10 8
4 6 5 4 3 4 3 5 4 4 3 3 2 2 0 2 4 1 3 3 3 4 3 2 3 6 2 2 4 5 4 6 6 7 6 5 5 8 8 5 5 3 3 3 3 4 6 4 6 8 8 9 5 6
4 3 4 4 3 4 5 6 7 5 4 3 4 4 3 2 2 3 4 4 1 4 1 1 5 5 1 3 4 4 6 7 8 7 7 7 7 7 8 7 5 8 3 4 3 7 5 5 7 8 7 5 3 7
5 4 3 6 4 4 6 5 3 6 6 4 3 2 2 1 1 1 3 5 3 2 5 8 9 5 4 3 3 2 7 7 5 4 7 8 8 8 8 7 8 7 8 8 6 4 5 6 5 8 7 6 5 7
4 4 4 7 6 4 3 2 4 1 3 5 4 2 3 3 3 6 6 7 2 4 2 2 3 3 4 4 2 4 2 4 6 4 3 7 7 6 6 8 7 5 7 8 7 8 7 6 9 7 6 5 5 5
3 2 4 5 4 3 2 2 5 6 5 4 2 4 6 7 4 4 5 7 5 5 3 2 2 2 2 2 4 6 3 6 4 5 4 6 7 5 5 5 6 7 5 6 7 7 0 4 5 6 3 3 3 2
2 3 4 5 4 3 3 4 5 5 1 1 2 4 5 6 5 2 4 5 4 5 5 5 4 1 2 4 4 5 5 4 4 4 5 3 5 5 5 4 4 5 5 5 6 5 4 3 2 3 3 3 5 0
3 4 3 4 3 4 3 3 3 4 2 1 2 2 3 4 5 2 3 4 3 4 3 3 5 6 4 5 5 5 6 5 4 4 3 4 4 4 2 4 4 3 4 6 6 7 7 5 1 3 4 3 5 5
4 4 5 4 3 3 1 3 3 3 2 2 2 1 3 3 4 3 4 4 2 4 5 6 4 7 6 7 6 5 6 7 8 6 6 6 7 7 7 5 3 3 3 3 4 4 5 6 5 3 2 3 3 4
Wind_Direction
284 285 283 283 278 279 236 234 207 206 214 232 249 270 284 289 283 283 288 271 274 278 286 263 248 259 259 260 272 40 277 183 262 274 261 318 321 343 300 302 289 285 283 259 252 247 256 14 341 310 326 318 317 302
283 283 279 279 273 270 210 214 196 201 216 240 261 274 283 283 284 282 276 201 224 251 287 307 282 255 249 261 261 250 315 346 325 302 302 313 288 292 284 287 287 306 352 304 299 294 316 315 309 306 299 293 293 284
284 283 284 278 285 209 213 192 203 203 225 246 259 281 294 287 285 262 270 288 241 258 289 242 215 194 212 223 214 210 238 264 251 323 333 296 269 304 286 292 301 309 313 257 288 273 275 294 306 300 300 296 293 290
280 279 281 280 210 191 184 193 198 217 236 247 275 290 292 296 272 264 261 287 255 294 296 306 149 207 184 197 190 204 247 339 313 304 255 247 272 308 291 294 290 288 286 273 282 282 323 294 316 305 296 291 287 279
276 274 274 167 180 175 177 191 208 232 247 262 284 299 292 302 290 271 253 236 244 285 294 310 309 257 229 188 200 187 212 245 227 271 251 255 288 295 278 282 269 320 21 299 289 304 290 289 290 293 289 283 278 275
277 147 153 155 148 161 191 202 227 238 214 230 281 315 298 305 305 284 233 210 170 230 284 288 48 185 168 190 205 191 180 208 216 240 242 253 250 211 276 284 44 22 337 297 283 289 288 287 289 303 306 300 280 277
125 126 122 137 163 175 216 183 160 193 238 270 282 281 280 293 278 273 5 0 70 265 301 284 217 164 184 193 174 155 149 149 148 213 236 258 270 183 258 264 330 344 325 313 310 308 300 303 310 312 315 317 300 293
102 115 128 177 125 120 136 183 227 250 260 283 282 263 264 270 274 247 221 175 267 265 233 262 269 178 180 187 135 159 152 145 195 240 243 245 136 205 254 290 331 314 302 294 300 312 309 310 315 325 326 323 313 279
99 98 100 110 138 179 192 227 206 228 275 284 290 250 207 234 220 102 109 163 222 285 237 236 280 62 173 186 128 176 170 191 181 226 238 214 204 220 244 302 296 309 322 313 317 323 328 326 324 328 333 332 330 326
96 114 149 151 154 178 20 173 259 273 288 278 238 213 200 63 113 149 73 155 161 242 254 254 279 329 343 1 167 182 184 212 210 208 181 236 270 235 271 278 275 308 335 342 332 324 326 330 329 325 332 323 317 307
83 141 203 166 260 294 295 266 269 277 241 218 228 202 94 134 186 215 208 216 182 218 214 223 245 183 14 293 14 269 254 250 260 153 244 223 232 240 248 284 305 311 335 339 321 346 351 328 339 330 332 325 317 306
323 322 235 239 277 289 278 245 273 246 261 346 294 259 181 195 193 244 212 187 208 240 202 193 118 161 89 21 211 235 263 268 258 151 235 250 140 29 348 321 325 313 327 334 327 0 1 354 0 340 332 331 328 320
301 296 290 278 271 274 284 266 270 270 269 241 229 216 215 195 233 226 204 204 193 238 167 156 152 124 122 223 223 243 234 233 284 212 234 41 41 339 5 325 313 319 317 324 329 4 8 7 12 348 345 353 341 11
312 278 284 276 259 255 260 279 230 247 250 264 204 214 230 193 237 223 264 93 150 206 174 138 175 178 137 188 236 231 224 251 254 234 178 37 7 333 334 310 310 321 343 303 333 11 15 25 8 355 0 4 357 13
292 285 281 271 241 243 245 249 224 226 220 244 227 237 216 253 215 244 244 177 188 190 187 127 249 208 167 237 217 258 234 240 234 316 357 356 330 339 325 343 328 357 341 308 13 6 25 40 11 3 10 21 24 21
294 285 221 15 284 252 243 216 196 241 243 225 219 244 261 245 247 244 202 196 211 201 116 133 222 221 214 209 210 216 238 233 61 274 293 307 338 313 355 2 2 360 28 24 21 50 44 44 17 12 25 29 32 38
272 243 106 2 315 208 172 154 157 219 239 243 244 240 261 228 263 248 253 200 234 142 114 207 219 222 206 213 215 172 243 34 289 275 284 299 332 336 339 348 17 7 30 21 34 59 65 77 53 39 34 14 26 36
252 150 99 352 228 170 196 204 183 244 244 239 252 257 270 253 263 260 249 239 233 159 192 208 296 255 242 244 140 175 202 232 266 277 343 309 350 354 349 13 44 16 39 48 34 26 67 98 36 62 74 28 42 94
327 354 27 345 255 268 208 201 228 258 241 254 236 254 231 221 240 232 226 231 234 134 142 82 261 240 250 322 98 138 174 203 302 322 325 316 330 326 4 58 32 41 57 52 21 51 38 56 47 53 69 54 53 71
296 265 249 279 265 259 217 210 239 261 277 273 276 257 227 244 224 218 232 223 196 201 199 213 214 198 210 268 5 352 294 132 285 311 10 59 5 86 17 36 36 55 71 54 62 36 32 64 48 55 56 61 77 78
216 163 197 235 229 240 280 262 260 276 297 297 285 256 232 222 213 218 228 195 199 214 223 243 164 181 257 341 174 222 139 234 280 351 343 335 3 52 42 66 68 52 45 55 82 91 68 51 51 93 84 74 62 89
128 144 232 169 252 252 273 233 250 236 252 259 257 229 224 223 218 218 201 218 235 228 216 191 88 63 210 203 171 220 240 237 211 290 233 247 253 87 74 40 80 69 80 94 81 73 71 78 33 83 67 101 85 76
236 200 235 216 242 215 259 185 245 215 240 246 241 224 224 212 204 199 213 212 173 141 108 61 109 180 279 259 227 222 213 225 275 253 325 338 66 89 87 65 76 92 100 92 80 86 70 340 63 64 92 98 103 98
193 256 237 222 204 271 278 222 230 246 242 265 247 235 208 200 166 207 224 111 133 137 102 130 170 26 253 248 226 179 158 206 335 58 4 28 85 88 78 92 86 81 106 119 129 80 77 71 52 84 70 104 93 95
234 238 184 252 228 237 246 252 238 230 245 227 245 239 62 132 203 248 153 127 138 89 97 325 122 251 273 202 152 121 110 261 53 54 19 8 108 113 95 85 87 103 117 125 114 108 106 78 62 82 59 75 80 95
252 197 201 245 207 236 287 275 260 263 264 266 286 49 44 187 202 153 84 117 116 131 137 241 168 250 257 154 136 116 95 37 70 61 35 12 21 117 113 114 124 104 66 103 99 97 71 84 64 73 97 105 55 96
272 262 240 210 231 262 272 256 259 275 263 332 35 356 316 279 53 21 111 56 64 109 31 263 230 270 297 141 112 115 90 71 57 56 52 53 39 41 120 126 167 121 124 92 91 101 98 90 108 80 78 81 75 77
257 294 340 292 258 245 276 289 316 30 3 356 329 257 330 19 67 142 82 111 110 134 219 205 213 214 94 123 153 144 115 114 138 116 95 88 81 70 57 69 71 38 78 47 17 92 30 81 73 86 88 106 70 87
260 271 273 283 264 250 267 318 61 161 228 187 209 188 76 76 74 99 122 111 135 231 250 143 81 75 136 143 146 122 184 93 70 76 78 90 94 93 118 135 159 145 120 110 67 59 49 57 54 52 61 74 103 99
257 272 296 272 220 267 283 63 178 205 240 267 311 109 102 95 84 119 136 125 172 190 194 141 160 45 38 128 138 123 150 80 55 70 19 75 90 96 91 97 117 125 135 121 114 124 258 217 130 138 118 91 98 123
283 274 255 255 275 286 340 355 330 326 348 275 323 95 100 117 112 78 116 134 170 177 153 141 121 133 11 90 117 142 116 77 71 36 10 82 103 98 94 87 99 121 134 129 106 114 86 73 83 79 80 119 125 339
222 226 268 293 318 306 298 298 283 269 286 327 143 133 144 135 112 104 162 173 165 131 101 158 155 159 132 92 89 75 55 94 79 63 33 18 53 59 157 120 113 102 127 143 165 142 145 149 162 88 124 124 125 125
199 235 263 277 260 242 217 281 287 336 16 7 356 85 109 88 94 115 120 69 68 168 138 110 121 103 90 78 86 85 58 76 80 68 59 42 21 350 314 294 142 172 186 149 145 163 154 156 150 201 147 103 95 79